SCOUT X-4 DEB, 976

Orbit data source: Space-Track

SCOUT X-4 DEB, 976 is space debris in LEO originally from a launch on Sat, 10 Oct 1964 UTC launched from the Air Force Western Test Range (AFWTR). Debris objects in space refer to the collection of defunct objects orbiting the Earth. Examples of debris include non-operational satellites, rocket bodies, and fragments generated from explosions, collisions, or faulty payload assembly.

Loading next visibility...
Identifier
976, 1964-064C
Orbit
LEO
Last TLE update
1 day ago
Origin
Manufacturer
APL
Mission
Spacecraft
Bus & Motor
Unknown
Mass
Unknown
Launch date (UTC)
1964-10-10 (61 years ago)
Launch vehicle
Unknown
Launch site
Air Force Western Test Range (AFWTR)
Object type
Payload
Rocket body
Debris
Shape & HBR
Unknown
Radar Cross Section
Small (<0.1 m²)

Expand to show TLE details & history

TLE from 1 day ago
0 SCOUT X-4 DEB
1 00976U 64064C   25182.54907800  .00000396  00000-0  21820-3 0  9997
2 00976  79.3153  12.7525 0115938 244.9665 113.9425 14.07603866 93634
Epoch: 2025-07-01T13:10Z
TLE epoch observation values (Epoch: 2025-07-01T13:10:40.339Z)
Latitude
-0.00002°
Longitude
-104.75852°
Altitude
905.316 km
Speed
7.382 km/s
True Right ascension
00h 51m 00s
True Declination
0° 00' 00"
Sunlit
Object was in daylight at epoch
Visualization orbit readout
Latitude
-61.39581°
Longitude
93.80399°
Altitude
807.105 km
Speed
7.492 km/s
Apparent Right ascension
18h 13m 01s
Apparent Declination
-62° 11' 45"
Sunlit
Object is in full shadow
Visualization observer readout
Local Sidereal Time
08:46:36
Azimuth
146.867° SSE
Elevation
-57.991°
Doppler factor
1
Orbital elements
Apogee altitude
948.836 km
Perigee altitude
780.888 km
Semi-major axis
7,242.999 km
Eccentricity
0.01159
Inclination
79.3153°
RAAN
12.7525°
Arg. of periapsis
244.9665°
True anomaly
Unknown
Mean anomaly
113.9425°
Eccentric anomaly
Unknown
Mean motion
3.521 °/min
Orbital period
102.24 mins
BSTAR
0.0002182
Loading maneuver chart data...
Loading SW <> Apogee altitude chart data...
Loading historical data...
Loading historical data...
Loading historical data...
Loading historical data...
Loading historical data...
Loading historical data...
Loading historical data...
Other satellites on launch #64 in the year 1964 (1964-10-10 UTC)

SCOUT X-4 DEB Visibility forecast

Observer location: undefined°, undefined°

Span
Click to sort rows by Start time (UTC) header in descending order
Start Az.
Max El. time (UTC)
Max El. Az.
Max El.
End time (UTC)
End Az.
10 mins2025-07-02 23:52:28.545Z358.179° N2025-07-02 23:57:28.545Z64.751° ENE39.265°2025-07-03 00:02:28.545Z150.036° SSE
6 mins2025-07-03 01:38:28.545Z299.736° NW2025-07-03 01:40:28.545Z275.13° WNW18.046°2025-07-03 01:44:28.545Z229.804° WSW
10 mins2025-07-03 13:03:28.545Z171.953° S2025-07-03 13:08:28.545Z84.149° E40.521°2025-07-03 13:13:28.545Z21.034° NNE
7 mins2025-07-03 14:49:28.545Z262.397° W2025-07-03 14:52:28.545Z299.233° NW19.678°2025-07-03 14:56:28.545Z341.324° N
|